Torna al catalogo

USA 238

AttivoMilitareLEO
NORAD 38758·PAYLOAD·🇺🇸 United States

Lanciato Sep 13, 2012 da Vandenberg Space Force Base

Loading…

Prossimi Passaggi (prossime 24 ore)

TLE

ObsoletoSource: Mike McCants

Epoca: Jul 20, 2026, 20:53 UTC

1 38758U 12048A   26201.87058179 0.00000000  00000-0  00000-0 0    05
2 38758  63.4236 122.9872 0316039 357.8416   2.1584 13.41005482    02

Traccia USA 238 in tempo reale con AllMySat

Download on the App Store